Regional Weather Roundup
Issued by NWS Cleveland, OH

Home | Current Version | Previous Version | Graphics & Text | Print | Product List | Glossary On
Versions: 1 2 3 4 5 6 7 8 9 10 11 12 13 14 15 16 17 18 19 20 21 22 23 24 25 26 27 28 29 30 31 32 33 34 35 36 37 38 39 40 41 42 43 44 45 46 47 48 49 50
000
ASUS41 KCLE 171210
RWRCLE
OHIO REGIONAL WEATHER ROUNDUP
NATIONAL WEATHER SERVICE CLEVELAND, OH
700 AM EST SUN DEC 17 2017

NOTE: "FAIR" INDICATES FEW OR NO CLOUDS BELOW 12,000 FEET WITH NO
SIGNIFICANT WEATHER AND/OR OBSTRUCTIONS TO VISIBILITY.

OHZ001>008-015>018-024>027-034-035-043-044-171300-
   NORTHWEST OHIO

CITY           SKY/WX    TMP DP  RH WIND       PRES   REMARKS
DEFIANCE       FOG       30  28  92 E8        30.15S VSB 1/2 WCI  22
FINDLAY        CLOUDY    27  23  85 E3        30.13S
TOLEDO EXPRESS CLOUDY    29  29 100 NE6       30.16R FOG     WCI  23
TOLEDO EXEC    CLOUDY    29  26  89 NE8       30.18R WCI  21
LIMA           CLOUDY    32  28  85 S8        30.12F WCI  25
$$

OHZ009>014-019>023-028>033-038-089-171300-
   NORTHEAST OHIO

CITY           SKY/WX    TMP DP  RH WIND       PRES   REMARKS
CLE-HOPKINS    CLOUDY    26  23  88 CALM      30.20S FOG
CLE-LAKEFRONT  PTCLDY    29  26  89 E3        30.19R FOG
CUY CO. ARPT   PTCLDY    27  27 100 E6        30.19  WCI  20
LORAIN-ELYRIA  PTCLDY    21  16  81 E5        30.17S HAZE    WCI  15
ASHTABULA      MOCLDY    24  23  96 E5        30.21R WCI  18
AKRON-CANTON   CLOUDY    29  23  78 S5        30.17R WCI  24
WOOSTER        CLOUDY    25  22  88 S3        30.16S
MANSFIELD      CLOUDY    32  26  78 S7        30.14F WCI  26
YOUNGSTOWN     CLOUDY    23  22  96 CALM      30.17R
$$

OHZ042-051>053-060>062-070>072-077>081-171300-
  SOUTHWEST OHIO

CITY           SKY/WX    TMP DP  RH WIND       PRES   REMARKS
CINC-COVINGTON CLOUDY    37  30  75 S5        30.16S
CINC-LUNKEN    CLOUDY    31  29  92 CALM      30.19F
HAMILTON       CLOUDY    32  29  88 SE3       30.17S
DAYTON         MOCLDY    37  30  75 S12       30.14S
WRIGHT-PAT AFB PTCLDY    35  31  85 SE6       30.15R WCI  30
DAYTON GENERAL PTCLDY    36  29  75 S10       30.14S
WILMINGTON     PTCLDY    34  30  85 S8        30.15S WCI  27
$$

OHZ036-037-039>041-045>050-054>059-063>069-073>076-082>088-171300-
  CENTRAL AND SOUTHEAST OHIO

CITY           SKY/WX    TMP DP  RH WIND       PRES   REMARKS
COLUMBUS       CLOUDY    35  29  78 SE5       30.17S
OSU AIRPORT    CLOUDY    32  29  88 S5        30.17R WCI  27
BOLTON FIELD   CLOUDY    32  29  88 S5        30.17S WCI  27
RICKENBACK AFB CLOUDY    36  29  78 S8        30.18R
NEWARK         CLOUDY    27  25  92 CALM      30.17F
MARION         CLOUDY    31  26  82 S8        30.15F WCI  23
LANCASTER      PTCLDY    34  28  79 S5        30.18S WCI  30
ZANESVILLE     CLOUDY    30  25  81 S3        30.19F
NEW PHILLY     NOT AVBL
$$




USA.gov is the U.S. government's official web portal to all federal, state and local government web resources and services.